TimeEST,TemperatureF,Dew PointF,Humidity,Sea Level PressureIn,VisibilityMPH,Wind Direction,Wind SpeedMPH,Gust SpeedMPH,PrecipitationIn,Events,Conditions,WindDirDegrees,DateUTC
12:52 AM,34.0,33.1,96,29.99,5.0,Calm,Calm,-,N/A,,Overcast,0,2013-02-23 05:52:00
1:52 AM,35.1,32.0,89,29.98,8.0,West,3.5,-,N/A,,Overcast,270,2013-02-23 06:52:00
2:52 AM,34.0,30.9,89,29.98,10.0,West,8.1,-,N/A,,Overcast,270,2013-02-23 07:52:00
3:52 AM,34.0,30.0,85,29.97,10.0,West,9.2,-,N/A,,Overcast,260,2013-02-23 08:52:00
4:52 AM,34.0,30.0,85,29.97,9.0,WSW,4.6,-,N/A,,Overcast,240,2013-02-23 09:52:00
5:52 AM,33.1,28.9,85,29.98,10.0,West,3.5,-,N/A,,Overcast,260,2013-02-23 10:52:00
6:52 AM,32.0,27.0,82,30.00,10.0,WSW,6.9,-,N/A,,Overcast,250,2013-02-23 11:52:00
7:52 AM,32.0,26.1,79,30.01,10.0,West,6.9,-,N/A,,Overcast,270,2013-02-23 12:52:00
8:52 AM,32.0,26.1,79,30.01,10.0,West,9.2,-,N/A,,Mostly Cloudy,270,2013-02-23 13:52:00
9:52 AM,33.1,26.1,75,30.00,10.0,West,8.1,-,N/A,,Scattered Clouds,270,2013-02-23 14:52:00
10:52 AM,35.1,26.1,70,29.98,10.0,West,4.6,-,N/A,,Partly Cloudy,260,2013-02-23 15:52:00
11:52 AM,37.9,26.1,62,29.97,10.0,WSW,5.8,-,N/A,,Scattered Clouds,250,2013-02-23 16:52:00
12:52 PM,41.0,25.0,53,29.96,10.0,West,11.5,-,N/A,,Partly Cloudy,260,2013-02-23 17:52:00
1:52 PM,41.0,23.0,49,29.93,10.0,WNW,8.1,-,N/A,,Partly Cloudy,300,2013-02-23 18:52:00
2:52 PM,43.0,24.1,47,29.92,10.0,WNW,8.1,-,N/A,,Scattered Clouds,300,2013-02-23 19:52:00
3:52 PM,44.1,24.1,45,29.92,10.0,WNW,8.1,-,N/A,,Partly Cloudy,290,2013-02-23 20:52:00
4:52 PM,43.0,24.1,47,29.91,10.0,NW,8.1,-,N/A,,Partly Cloudy,310,2013-02-23 21:52:00
5:52 PM,41.0,25.0,53,29.91,10.0,NW,6.9,-,N/A,,Partly Cloudy,320,2013-02-23 22:52:00
6:52 PM,37.0,24.1,59,29.92,10.0,NNW,8.1,-,N/A,,Partly Cloudy,330,2013-02-23 23:52:00
7:52 PM,35.1,25.0,67,29.94,10.0,NNW,5.8,-,N/A,,Scattered Clouds,330,2013-02-24 00:52:00
8:52 PM,33.1,24.1,70,29.94,10.0,NNW,4.6,-,N/A,,Partly Cloudy,330,2013-02-24 01:52:00
9:52 PM,34.0,24.1,67,29.94,10.0,NNW,5.8,-,N/A,,Partly Cloudy,330,2013-02-24 02:52:00
10:52 PM,32.0,24.1,73,29.96,10.0,WNW,8.1,-,N/A,,Partly Cloudy,290,2013-02-24 03:52:00
11:52 PM,32.0,24.1,73,29.96,10.0,WNW,6.9,-,N/A,,Overcast,290,2013-02-24 04:52:00